Tracking 18796 objects as of 19-September-2017
HD Live streaming from Space Station
objects crossing your sky now

TYVAK 53B

Track TYVAK 53B now!
10-day predictions


NORAD ID: 42795
Int'l Code: 2017-036AG
Perigee: 504.3 km
Apogee: 516.3 km
Inclination: 97.4 °
Period: 94.7 minutes
Semi major axis: 6881 km
RCS: Unknown
Launch date: June 23, 2017
Source: United States (US)
Launch site: SIRHARIKOTA (SRI)
aabbcc
Your satellite tracking list
Your tracking list is empty





NASA's NSSDC Master Catalog

Two Line Element Set (TLE):
1 42795U 17036AG  17262.13184269  .00003579  00000-0  16496-3 0  9999
2 42795  97.4226 320.9378 0008701  98.5531 261.6691 15.20880107 13308
Source of the keplerian elements: AFSPC